VK3VJP-13 Weather Reports


Display with metric or nautical units.
time (UTC)temp
F
wind
direction
speed
MPH
gust
MPH
rain 1hr
in
rain 24hr
in
rain mn
in
humidity
%
barometer
mb
20260510220250 43 38 0.0 3.0 0.00 0.00 0.00 94 1032.6
20260510215750 43 98 0.0 0.0 0.00 0.00 0.00 94 1032.5
20260510215250 43 122 0.0 0.0 0.00 0.00 0.00 94 1032.4
20260510214750 43 122 1.0 2.0 0.00 0.00 0.00 94 1032.3
20260510214250 43 122 1.0 2.0 0.00 0.00 0.00 94 1032.1
20260510213750 43 122 0.0 2.0 0.00 0.00 0.00 93 1032.0
20260510213250 43 122 0.0 2.0 0.00 0.00 0.00 93 1032.0
20260510212750 43 122 1.0 2.0 0.00 0.00 0.00 93 1031.9
20260510212250 43 122 1.0 2.0 0.00 0.00 0.00 93 1031.9
20260510211750 43 122 1.0 2.0 0.00 0.00 0.00 93 1031.8
20260510211250 43 93 2.0 3.0 0.00 0.00 0.00 94 1031.9
20260510210750 43 111 2.0 3.0 0.00 0.00 0.00 93 1031.8
20260510210250 43 107 2.0 3.0 0.00 0.00 0.00 94 1031.8
20260510205750 43 103 2.0 6.0 0.00 0.00 0.00 94 1031.7
20260510205250 42 88 2.0 4.0 0.00 0.00 0.00 94 1031.7
20260510204750 42 138 2.0 4.0 0.00 0.00 0.00 94 1031.7
20260510204250 42 78 2.0 4.0 0.00 0.00 0.00 94 1031.7
20260510203750 42 111 2.0 4.0 0.00 0.00 0.00 94 1031.5
20260510203250 41 120 1.0 4.0 0.00 0.00 0.00 92 1031.5
20260510202750 41 115 0.0 0.0 0.00 0.00 0.00 91 1031.5
20260510202250 42 115 1.0 2.0 0.00 0.00 0.00 91 1031.4
20260510201750 42 53 1.0 3.0 0.00 0.00 0.00 91 1031.2
20260510201250 42 86 0.0 2.0 0.00 0.00 0.00 91 1031.2
20260510200750 42 71 0.0 2.0 0.00 0.00 0.00 91 1031.1
20260510200250 43 85 0.0 0.0 0.00 0.00 0.00 91 1031.1
20260510195750 43 85 0.0 1.0 0.00 0.00 0.00 90 1031.0
20260510195250 43 85 0.0 1.0 0.00 0.00 0.00 90 1030.9
20260510194750 44 85 0.0 1.0 0.00 0.00 0.00 90 1031.0
20260510194250 44 85 0.0 1.0 0.00 0.00 0.00 91 1030.8
20260510193750 44 85 0.0 1.0 0.00 0.00 0.00 91 1030.7
20260510193250 44 85 0.0 1.0 0.00 0.00 0.00 91 1030.8
20260510192750 45 85 0.0 3.0 0.00 0.00 0.00 90 1030.7
20260510192250 45 80 0.0 1.0 0.00 0.00 0.00 90 1030.7
20260510191750 45 80 0.0 2.0 0.00 0.00 0.00 90 1030.7
20260510191250 45 88 1.0 2.0 0.00 0.00 0.00 91 1030.5
20260510190750 45 88 2.0 5.0 0.00 0.00 0.00 91 1030.5
20260510190250 46 86 3.0 6.0 0.00 0.00 0.00 91 1030.5
20260510185750 46 92 3.0 7.0 0.00 0.00 0.00 91 1030.5
20260510185250 46 88 3.0 7.0 0.00 0.00 0.00 91 1030.5
20260510184750 46 128 4.0 7.0 0.00 0.00 0.00 91 1030.5
20260510184250 46 78 3.0 8.0 0.00 0.00 0.00 91 1030.5
20260510183750 46 105 3.0 7.0 0.00 0.00 0.00 91 1030.4
20260510183250 46 137 3.0 8.0 0.00 0.00 0.00 90 1030.4
20260510182750 46 71 3.0 8.0 0.00 0.00 0.00 90 1030.5
20260510182250 46 94 3.0 6.0 0.00 0.00 0.00 91 1030.4
20260510181750 46 91 3.0 7.0 0.00 0.00 0.00 91 1030.4
20260510181250 46 93 3.0 8.0 0.00 0.00 0.00 91 1030.3
20260510180750 46 94 2.0 7.0 0.00 0.00 0.00 91 1030.2
20260510180250 46 122 3.0 7.0 0.00 0.00 0.00 90 1030.3
20260510175750 46 121 4.0 8.0 0.00 0.00 0.00 90 1030.3
20260510175250 46 68 3.0 9.0 0.00 0.00 0.00 91 1030.2
20260510174750 46 78 3.0 6.0 0.00 0.00 0.00 90 1030.2
20260510174250 46 109 3.0 8.0 0.00 0.00 0.00 90 1030.2
20260510173750 46 88 3.0 7.0 0.00 0.00 0.00 91 1030.1
20260510173250 46 94 3.0 7.0 0.00 0.00 0.00 91 1030.1
20260510172750 46 118 3.0 8.0 0.00 0.00 0.00 91 1030.2
20260510172250 46 84 3.0 7.0 0.00 0.00 0.00 90 1030.1
20260510171750 46 99 3.0 5.0 0.00 0.00 0.00 90 1030.1
20260510171250 46 50 2.0 7.0 0.00 0.00 0.00 91 1030.2
20260510170750 46 83 2.0 7.0 0.00 0.00 0.00 90 1030.1
20260510170250 46 112 3.0 7.0 0.00 0.00 0.00 90 1030.1
20260510165750 46 110 3.0 8.0 0.00 0.00 0.00 90 1030.1
20260510165250 46 112 3.0 7.0 0.00 0.00 0.00 90 1030.1
20260510164750 46 105 3.0 8.0 0.00 0.00 0.00 90 1030.1
20260510164250 46 94 3.0 7.0 0.00 0.00 0.00 90 1030.1
20260510163750 46 119 3.0 7.0 0.00 0.00 0.00 90 1030.1
20260510163250 46 129 3.0 8.0 0.00 0.00 0.00 90 1030.1
20260510162750 46 87 3.0 8.0 0.00 0.00 0.00 90 1030.1
20260510162250 46 101 2.0 6.0 0.00 0.00 0.00 90 1030.2
20260510161750 46 125 2.0 7.0 0.00 0.00 0.00 90 1030.2
20260510161250 46 158 2.0 7.0 0.00 0.00 0.00 90 1030.3
20260510160750 46 101 2.0 5.0 0.00 0.00 0.00 90 1030.2
20260510160250 46 92 2.0 4.0 0.00 0.00 0.00 91 1030.3
20260510155750 46 68 2.0 9.0 0.00 0.00 0.00 91 1030.3
20260510155250 46 107 2.0 3.0 0.00 0.00 0.00 91 1030.3
20260510154750 45 70 1.0 4.0 0.00 0.00 0.00 91 1030.3
20260510154250 45 85 1.0 3.0 0.00 0.00 0.00 91 1030.3
20260510153750 45 94 1.0 5.0 0.00 0.00 0.00 91 1030.4
20260510153250 45 0 1.0 3.0 0.00 0.00 0.00 90 1030.4
20260510152750 45 84 1.0 3.0 0.00 0.00 0.00 90 1030.5
20260510152250 45 77 1.0 3.0 0.00 0.00 0.00 90 1030.4
20260510151750 46 187 2.0 4.0 0.00 0.00 0.00 90 1030.3
20260510151250 46 126 2.0 4.0 0.00 0.00 0.00 90 1030.4
20260510150751 46 74 1.0 4.0 0.00 0.00 0.00 90 1030.4
20260510150250 46 171 1.0 4.0 0.00 0.00 0.00 90 1030.5
20260510145750 46 30 1.0 8.0 0.00 0.00 0.00 90 1030.5
20260510145250 46 67 1.0 5.0 0.00 0.00 0.00 90 1030.4
20260510144750 46 209 1.0 2.0 0.00 0.00 0.00 90 1030.5
20260510144250 46 155 1.0 4.0 0.00 0.00 0.00 90 1030.5
20260510143750 46 118 1.0 3.0 0.00 0.00 0.00 90 1030.6
20260510143250 46 86 2.0 3.0 0.00 0.00 0.00 90 1030.6
20260510142750 46 111 2.0 7.0 0.00 0.00 0.00 90 1030.5
20260510142251 46 144 1.0 4.0 0.00 0.00 0.00 90 1030.5
20260510141751 46 174 2.0 2.0 0.00 0.00 0.00 90 1030.5
20260510141251 46 134 3.0 7.0 0.00 0.00 0.00 90 1030.5
20260510140751 46 184 2.0 11.0 0.00 0.00 0.00 90 1030.6
20260510140250 46 181 2.0 3.0 0.00 0.00 0.00 90 1030.6
20260510135751 46 120 2.0 5.0 0.00 0.00 0.00 90 1030.6
20260510135251 46 123 1.0 4.0 0.00 0.00 0.00 90 1030.6
20260510134751 46 126 1.0 6.0 0.00 0.00 0.00 90 1030.6
20260510134251 46 213 2.0 5.0 0.00 0.00 0.00 90 1030.6
20260510133751 46 86 2.0 6.0 0.00 0.00 0.00 90 1030.6
20260510133251 46 97 2.0 7.0 0.00 0.00 0.00 90 1030.7
20260510132751 46 229 1.0 3.0 0.00 0.00 0.00 90 1030.7
20260510132251 46 202 1.0 5.0 0.00 0.00 0.00 90 1030.7
20260510131751 46 205 1.0 2.0 0.00 0.00 0.00 90 1030.7
20260510131251 46 217 1.0 3.0 0.00 0.00 0.00 89 1030.7
20260510130751 47 243 2.0 4.0 0.00 0.00 0.00 89 1030.8
20260510130251 47 46 1.0 6.0 0.00 0.00 0.00 90 1030.8
20260510125751 47 116 1.0 7.0 0.00 0.00 0.00 89 1030.8
20260510125251 47 213 1.0 4.0 0.00 0.00 0.00 89 1030.8
20260510124751 47 198 1.0 4.0 0.00 0.00 0.00 89 1030.7
20260510124251 47 70 1.0 7.0 0.00 0.00 0.00 89 1030.8
20260510123751 47 55 1.0 3.0 0.00 0.00 0.00 89 1030.8
20260510123251 47 59 1.0 5.0 0.00 0.00 0.00 89 1030.8
20260510122751 47 80 1.0 6.0 0.00 0.00 0.00 88 1030.9
20260510122251 47 169 1.0 5.0 0.00 0.00 0.00 88 1030.8
20260510121751 47 150 1.0 4.0 0.00 0.00 0.00 88 1030.8
20260510121251 47 47 1.0 4.0 0.00 0.00 0.00 88 1030.8
20260510120751 47 113 2.0 9.0 0.00 0.00 0.00 88 1030.8
20260510120251 47 94 1.0 5.0 0.00 0.00 0.00 88 1030.9
20260510115751 47 105 1.0 4.0 0.00 0.00 0.00 88 1030.8
20260510115251 47 109 2.0 3.0 0.00 0.00 0.00 88 1030.9
20260510114751 47 71 2.0 5.0 0.00 0.00 0.00 88 1030.8
20260510114251 47 126 1.0 3.0 0.00 0.00 0.00 88 1030.9
20260510113751 47 134 2.0 6.0 0.00 0.00 0.00 88 1030.8
20260510113251 48 74 2.0 6.0 0.00 0.00 0.00 88 1030.9
20260510112751 48 164 2.0 4.0 0.00 0.00 0.00 87 1030.8
20260510112251 48 60 2.0 6.0 0.00 0.00 0.00 87 1030.8
20260510111751 48 166 2.0 5.0 0.00 0.00 0.00 87 1030.8
20260510111251 48 244 1.0 5.0 0.00 0.00 0.00 87 1030.7
20260510110751 48 105 1.0 6.0 0.00 0.00 0.00 87 1030.7
20260510110251 48 126 2.0 3.0 0.00 0.00 0.00 87 1030.8
20260510105751 48 202 2.0 9.0 0.00 0.00 0.00 87 1030.7
20260510105251 48 127 0.0 3.0 0.00 0.00 0.00 87 1030.7
20260510104751 48 128 1.0 2.0 0.00 0.00 0.00 86 1030.6
20260510104251 48 300 2.0 4.0 0.00 0.00 0.00 86 1030.5
20260510103751 48 90 2.0 6.0 0.00 0.00 0.00 86 1030.6
20260510103251 48 69 2.0 8.0 0.00 0.00 0.00 86 1030.6
20260510102751 48 84 2.0 8.0 0.00 0.00 0.00 86 1030.6
20260510102251 48 111 2.0 3.0 0.00 0.00 0.00 86 1030.6
20260510101751 48 138 2.0 8.0 0.00 0.00 0.00 86 1030.6
20260510101251 48 300 1.0 3.0 0.00 0.00 0.00 86 1030.5
20260510100751 48 263 2.0 8.0 0.00 0.00 0.00 86 1030.5
20260510100251 48 113 2.0 6.0 0.00 0.00 0.00 86 1030.6
20260510095751 48 34 1.0 3.0 0.00 0.00 0.00 86 1030.6
20260510095251 48 169 2.0 6.0 0.00 0.00 0.00 86 1030.5
20260510094751 48 230 2.0 6.0 0.00 0.00 0.00 86 1030.5
20260510094251 48 116 2.0 7.0 0.00 0.00 0.00 86 1030.4
20260510093751 48 153 1.0 4.0 0.00 0.00 0.00 85 1030.4
20260510093251 48 220 1.0 4.0 0.00 0.00 0.00 85 1030.3
20260510092751 49 109 2.0 5.0 0.00 0.00 0.00 85 1030.3
20260510092251 49 106 2.0 5.0 0.00 0.00 0.00 85 1030.1
20260510091751 49 259 2.0 6.0 0.00 0.00 0.00 85 1030.2
20260510091251 49 142 1.0 4.0 0.00 0.00 0.00 85 1030.1
20260510090751 49 90 1.0 4.0 0.00 0.00 0.00 85 1030.0
20260510090251 49 205 1.0 6.0 0.00 0.00 0.00 85 1029.9
20260510085751 49 99 2.0 5.0 0.00 0.00 0.00 85 1029.9
20260510085251 49 303 2.0 4.0 0.00 0.00 0.00 85 1029.8
20260510084751 49 238 2.0 4.0 0.00 0.00 0.00 85 1029.9
20260510084251 49 149 1.0 4.0 0.00 0.00 0.00 84 1029.9
20260510083751 50 327 1.0 5.0 0.00 0.00 0.00 84 1029.8
20260510083251 50 179 1.0 5.0 0.00 0.00 0.00 84 1029.7
20260510082751 50 85 1.0 4.0 0.00 0.00 0.00 84 1029.7
20260510082251 50 140 1.0 5.0 0.00 0.00 0.00 83 1029.6
20260510081751 50 147 1.0 5.0 0.00 0.00 0.00 83 1029.6
20260510081251 50 194 1.0 3.0 0.00 0.00 0.00 83 1029.6
20260510080751 51 223 1.0 2.0 0.00 0.00 0.00 82 1029.6
20260510080251 51 221 1.0 4.0 0.00 0.00 0.00 82 1029.4
20260510075751 51 103 1.0 2.0 0.00 0.00 0.00 81 1029.4
20260510075251 51 206 1.0 4.0 0.00 0.00 0.00 81 1029.5
20260510074751 52 157 1.0 2.0 0.00 0.00 0.00 80 1029.4
20260510074251 52 234 1.0 2.0 0.00 0.00 0.00 79 1029.4
20260510073751 53 107 1.0 3.0 0.00 0.00 0.00 79 1029.3
20260510073251 53 183 1.0 3.0 0.00 0.00 0.00 78 1029.3
20260510072751 53 143 1.0 4.0 0.00 0.00 0.00 77 1029.3
20260510072251 54 172 1.0 3.0 0.00 0.00 0.00 77 1029.3
20260510071751 54 126 0.0 2.0 0.00 0.00 0.00 76 1029.3
20260510071251 54 104 1.0 2.0 0.00 0.00 0.00 75 1029.3
20260510070751 55 178 1.0 4.0 0.00 0.00 0.00 75 1029.3
20260510070251 55 92 1.0 4.0 0.00 0.00 0.00 75 1029.3
20260510065751 55 150 1.0 4.0 0.00 0.00 0.00 75 1029.2
20260510065251 56 190 1.0 5.0 0.00 0.00 0.00 74 1029.1
20260510064751 56 265 1.0 3.0 0.00 0.00 0.00 73 1029.2
20260510064251 56 148 1.0 5.0 0.00 0.00 0.00 73 1029.1
20260510063751 56 146 1.0 5.0 0.00 0.00 0.00 74 1029.1
20260510063251 56 232 2.0 5.0 0.00 0.00 0.00 73 1029.0
20260510062751 57 207 2.0 6.0 0.00 0.00 0.00 73 1029.0
20260510062251 57 205 2.0 7.0 0.00 0.00 0.00 73 1029.0
20260510061751 57 229 1.0 2.0 0.00 0.00 0.00 73 1028.9
20260510061251 57 117 1.0 4.0 0.00 0.00 0.00 73 1028.9
20260510060751 57 206 2.0 4.0 0.00 0.00 0.00 73 1028.9
20260510060251 57 183 2.0 6.0 0.00 0.00 0.00 72 1028.8
20260510055751 57 238 1.0 7.0 0.00 0.00 0.00 72 1028.8
20260510055251 57 254 2.0 4.0 0.00 0.00 0.00 72 1028.8
20260510054751 57 66 3.0 4.0 0.00 0.00 0.00 71 1028.8
20260510054251 58 74 3.0 9.0 0.00 0.00 0.00 70 1028.7
20260510053751 58 40 2.0 6.0 0.00 0.00 0.00 70 1028.8
20260510053251 58 198 2.0 7.0 0.00 0.00 0.00 72 1028.8
20260510052751 57 117 2.0 8.0 0.00 0.00 0.00 71 1028.7
20260510052251 57 86 2.0 6.0 0.00 0.00 0.00 72 1028.7
20260510051751 57 182 3.0 8.0 0.00 0.00 0.00 73 1028.7
20260510051251 57 69 3.0 8.0 0.00 0.00 0.00 72 1028.6
20260510050751 57 128 2.0 5.0 0.00 0.00 0.00 72 1028.7
20260510050251 57 251 3.0 7.0 0.00 0.00 0.00 70 1028.6
20260510045751 57 61 3.0 9.0 0.00 0.00 0.00 70 1028.7
20260510045251 57 197 3.0 7.0 0.00 0.00 0.00 71 1028.7
20260510044751 57 257 2.0 7.0 0.00 0.00 0.00 72 1028.6
20260510044251 57 225 2.0 7.0 0.00 0.00 0.00 71 1028.7
20260510043751 58 212 3.0 10.0 0.00 0.00 0.00 70 1028.6
20260510043251 58 0 2.0 7.0 0.00 0.00 0.00 70 1028.6
20260510042752 58 134 2.0 10.0 0.00 0.00 0.00 69 1028.6
20260510042251 58 197 3.0 9.0 0.00 0.00 0.00 70 1028.5
20260510041752 59 19 3.0 5.0 0.00 0.00 0.00 69 1028.5
20260510041252 59 155 3.0 7.0 0.00 0.00 0.00 71 1028.5
20260510040752 59 115 3.0 8.0 0.00 0.00 0.00 70 1028.6
20260510040252 59 230 3.0 7.0 0.00 0.00 0.00 70 1028.6
20260510035752 59 132 2.0 10.0 0.00 0.00 0.00 70 1028.6
20260510035252 59 57 2.0 9.0 0.00 0.00 0.00 70 1028.7
20260510034752 59 219 2.0 7.0 0.00 0.00 0.00 72 1028.6
20260510034252 59 261 3.0 9.0 0.00 0.00 0.00 71 1028.6
20260510033752 59 192 3.0 9.0 0.00 0.00 0.00 71 1028.6
20260510033252 59 9 2.0 7.0 0.00 0.00 0.00 70 1028.6
20260510032752 59 94 2.0 5.0 0.00 0.00 0.00 71 1028.7
20260510032252 59 105 3.0 10.0 0.00 0.00 0.00 71 1028.7
20260510031752 59 149 2.0 6.0 0.00 0.00 0.00 72 1028.7
20260510031252 59 69 2.0 5.0 0.00 0.00 0.00 71 1028.6
20260510030752 59 98 3.0 4.0 0.00 0.00 0.00 72 1028.8
20260510030252 59 171 3.0 8.0 0.00 0.00 0.00 73 1028.8
20260510025752 58 192 2.0 6.0 0.00 0.00 0.00 73 1028.8
20260510025252 58 242 3.0 6.0 0.00 0.00 0.00 73 1028.9
20260510024752 58 321 3.0 8.0 0.00 0.00 0.00 73 1029.0
20260510023752 58 28 3.0 13.0 0.00 0.00 0.00 73 1029.1
20260510023252 58 182 3.0 9.0 0.00 0.00 0.00 72 1029.2
20260510022752 58 217 2.0 9.0 0.00 0.00 0.00 75 1029.2
20260510022252 58 103 3.0 9.0 0.00 0.00 0.00 73 1029.3
20260510021752 58 263 3.0 5.0 0.00 0.00 0.00 73 1029.4
20260510021252 58 184 2.0 5.0 0.00 0.00 0.00 74 1029.5
20260510020752 57 115 2.0 4.0 0.00 0.00 0.00 75 1029.6
20260510020252 57 355 2.0 7.0 0.00 0.00 0.00 75 1029.6
20260510015752 57 76 3.0 7.0 0.00 0.00 0.00 76 1029.5
20260510015252 56 56 4.0 8.0 0.00 0.00 0.00 77 1029.7
20260510014752 56 144 4.0 8.0 0.00 0.00 0.00 77 1029.6
20260510014252 56 5 4.0 9.0 0.00 0.00 0.00 77 1029.6
20260510013752 56 234 4.0 11.0 0.00 0.00 0.00 77 1029.8
20260510013252 56 159 4.0 9.0 0.00 0.00 0.00 78 1029.8
20260510012752 55 157 4.0 11.0 0.00 0.00 0.00 78 1029.9
20260510012252 55 215 4.0 11.0 0.00 0.00 0.00 78 1030.0
20260510011252 55 54 3.0 8.0 0.00 0.00 0.00 78 1030.0
20260510010752 54 128 3.0 7.0 0.00 0.00 0.00 79 1030.0
20260510010252 54 225 3.0 8.0 0.00 0.00 0.00 79 1030.0
20260510005752 54 254 4.0 9.0 0.00 0.00 0.00 81 1029.9
20260510005252 54 74 5.0 11.0 0.00 0.00 0.00 81 1029.9
20260510004752 53 194 4.0 13.0 0.00 0.00 0.00 81 1029.9
20260510004252 53 149 4.0 9.0 0.00 0.00 0.00 80 1030.0
20260510003752 53 115 4.0 10.0 0.00 0.00 0.00 82 1029.9
20260510003252 53 122 4.0 10.0 0.00 0.00 0.00 83 1029.9
20260510002752 52 88 4.0 11.0 0.00 0.00 0.00 83 1030.0
20260510002252 52 213 5.0 14.0 0.00 0.00 0.00 83 1029.8
20260510001752 52 185 5.0 10.0 0.00 0.00 0.00 84 1029.8
20260510001252 51 71 4.0 13.0 0.00 0.00 0.00 85 1029.9
20260510000752 51 105 4.0 12.0 0.00 0.00 0.00 87 1029.8
20260510000252 50 271 4.0 10.0 0.00 0.00 0.00 88 1029.8
20260509235752 50 107 4.0 12.0 0.00 0.00 0.00 88 1029.9
20260509235252 50 217 4.0 11.0 0.00 0.00 0.00 88 1029.9
20260509234752 50 213 4.0 13.0 0.00 0.00 0.00 88 1029.9
20260509234252 50 61 4.0 14.0 0.00 0.00 0.00 88 1029.8
20260509233752 50 264 3.0 12.0 0.00 0.00 0.00 89 1029.9
20260509233252 50 168 4.0 10.0 0.00 0.00 0.00 89 1029.9
20260509232752 49 255 4.0 12.0 0.00 0.00 0.00 89 1029.8
20260509232252 49 34 3.0 10.0 0.00 0.00 0.00 90 1030.0
20260509231752 49 148 3.0 8.0 0.00 0.00 0.00 90 1030.1
20260509231252 49 239 4.0 10.0 0.00 0.00 0.00 90 1030.0
20260509230752 49 24 3.0 11.0 0.00 0.00 0.00 91 1030.1
20260509230252 49 170 3.0 7.0 0.00 0.00 0.00 91 1030.1
20260509225752 49 81 3.0 8.0 0.00 0.00 0.00 91 1029.9
20260509225252 49 156 2.0 9.0 0.00 0.00 0.00 92 1030.0
20260509224752 49 130 2.0 5.0 0.00 0.00 0.00 92 1030.0
20260509224252 49 194 2.0 6.0 0.00 0.00 0.00 92 1029.9
20260509223752 49 244 3.0 8.0 0.00 0.00 0.00 92 1029.7
20260509223252 49 217 2.0 6.0 0.00 0.00 0.00 92 1029.7
20260509222752 49 276 2.0 7.0 0.00 0.00 0.00 93 1029.6
20260509222252 49 281 2.0 5.0 0.00 0.00 0.00 93 1029.6
20260509221753 49 244 2.0 5.0 0.00 0.00 0.00 93 1029.5
20260509221252 49 349 2.0 4.0 0.00 0.00 0.00 93 1029.5
20260509220752 49 110 2.0 6.0 0.00 0.00 0.00 93 1029.4